DW7027 Weather Reports


Display with metric or nautical units.
time (UTC)temp
F
wind
direction
speed
MPH
gust
MPH
rain 1hr
in
rain 24hr
in
rain mn
in
humidity
%
barometer
mb
20260510030704 40 340 1.0 2.0 0.00 0.00 0.00 86 1022.2
20260510025703 41 296 0.0 2.0 0.00 0.00 0.00 86 1022.3
20260510025205 41 336 1.0 2.0 0.00 0.00 0.00 86 1022.2
20260510024704 41 322 1.0 2.0 0.00 0.00 0.00 85 1022.3
20260510023704 41 298 2.0 3.0 0.00 0.00 0.00 85 1022.2
20260510023203 41 297 2.0 3.0 0.00 0.00 0.00 85 1022.3
20260510022703 41 301 2.0 3.0 0.00 0.00 0.00 85 1022.3
20260510022203 42 333 1.0 2.0 0.00 0.00 0.00 84 1022.1
20260510021204 42 311 1.0 2.0 0.00 0.00 0.00 84 1022.3
20260510020703 42 291 1.0 2.0 0.00 0.00 0.00 84 1022.1
20260510020203 42 300 1.0 2.0 0.00 0.00 0.00 84 1022.2
20260510015204 43 339 1.0 3.0 0.00 0.00 0.00 84 1022.0
20260510014703 43 337 1.0 3.0 0.00 0.00 0.00 84 1022.1
20260510014203 43 356 2.0 3.0 0.00 0.00 0.00 83 1022.0
20260510013704 43 334 1.0 2.0 0.00 0.00 0.00 83 1022.2
20260510013205 43 301 0.0 2.0 0.00 0.00 0.00 83 1022.2
20260510012704 43 349 2.0 3.0 0.00 0.00 0.00 83 1022.2
20260510012203 43 339 2.0 3.0 0.00 0.00 0.00 83 1022.4
20260510011703 43 356 2.0 3.0 0.00 0.00 0.00 82 1022.5
20260510011204 43 336 2.0 5.0 0.00 0.00 0.00 82 1022.4
20260510010703 43 298 2.0 3.0 0.00 0.00 0.00 82 1022.5
20260510005704 43 262 1.0 2.0 0.00 0.00 0.00 81 1022.4
20260510005203 44 320 1.0 6.0 0.00 0.00 0.00 81 1022.4
20260510004703 44 323 3.0 5.0 0.00 0.00 0.00 81 1022.4
20260510004203 44 342 2.0 5.0 0.00 0.00 0.00 81 1022.5
20260510003703 44 337 3.0 5.0 0.00 0.00 0.00 81 1022.4
20260510003203 44 332 2.0 5.0 0.00 0.00 0.00 81 1022.5
20260510002704 44 346 2.0 3.0 0.00 0.00 0.00 80 1022.6
20260510002203 44 354 2.0 5.0 0.00 0.00 0.00 80 1022.7
20260510001704 44 325 3.0 5.0 0.00 0.00 0.00 79 1022.8
20260510000703 45 274 3.0 3.0 0.00 0.00 0.00 79 1022.8
20260510000204 45 288 2.0 3.0 0.00 0.00 0.00 79 1022.6
20260509235703 45 344 2.0 5.0 0.00 0.00 0.00 79 1022.7
20260509235204 45 355 3.0 6.0 0.00 0.00 0.00 79 1022.7
20260509234204 45 353 3.0 5.0 0.00 0.00 0.00 77 1022.7
20260509233704 45 348 2.0 2.0 0.00 0.00 0.00 77 1022.9
20260509233204 45 283 2.0 3.0 0.00 0.00 0.00 77 1022.9
20260509232704 46 284 2.0 3.0 0.00 0.00 0.00 76 1023.1
20260509232203 46 276 2.0 3.0 0.00 0.00 0.00 76 1023.2
20260509231703 46 336 1.0 3.0 0.00 0.00 0.00 75 1023.1
20260509230703 46 297 1.0 3.0 0.00 0.00 0.00 75 1023.4
20260509230203 47 291 1.0 2.0 0.00 0.00 0.00 74 1023.3
20260509225704 47 330 2.0 3.0 0.00 0.00 0.00 74 1023.3
20260509225203 47 354 2.0 3.0 0.00 0.00 0.00 74 1023.4
20260509223703 48 343 2.0 5.0 0.00 0.00 0.00 72 1023.4
20260509223203 48 314 1.0 3.0 0.00 0.00 0.00 72 1023.4
20260509222704 48 325 2.0 5.0 0.00 0.00 0.00 72 1023.4
20260509222203 48 342 3.0 6.0 0.00 0.00 0.00 72 1023.4
20260509221703 49 347 2.0 3.0 0.00 0.00 0.00 71 1023.3
20260509221204 49 1 2.0 2.0 0.00 0.00 0.00 70 1023.5
20260509215704 50 342 2.0 3.0 0.00 0.00 0.00 69 1023.5
20260509215203 50 340 1.0 2.0 0.00 0.00 0.00 69 1023.3
20260509214203 51 336 2.0 5.0 0.00 0.00 0.00 69 1023.3
20260509213703 51 343 2.0 5.0 0.00 0.00 0.00 69 1023.4
20260509213204 51 352 3.0 5.0 0.00 0.00 0.00 69 1023.5
20260509212704 51 359 3.0 5.0 0.00 0.00 0.00 69 1023.4
20260509212203 51 0 3.0 6.0 0.00 0.00 0.00 68 1023.4
20260509211704 51 357 3.0 5.0 0.00 0.00 0.00 68 1023.5
20260509211204 51 350 3.0 5.0 0.00 0.00 0.00 68 1023.5
20260509210703 51 357 3.0 5.0 0.00 0.00 0.00 68 1023.3
20260509210204 51 3 2.0 5.0 0.00 0.00 0.00 67 1023.5
20260509205704 51 3 2.0 5.0 0.00 0.00 0.00 67 1023.4
20260509205204 51 352 2.0 5.0 0.00 0.00 0.00 66 1023.4
20260509204204 52 348 3.0 5.0 0.00 0.00 0.00 66 1023.6
20260509203703 52 355 2.0 5.0 0.00 0.00 0.00 66 1023.6
20260509202703 52 351 2.0 5.0 0.00 0.00 0.00 65 1023.7
20260509202203 52 342 2.0 3.0 0.00 0.00 0.00 64 1023.6
20260509201703 52 356 2.0 3.0 0.00 0.00 0.00 64 1023.5
20260509201203 53 3 2.0 3.0 0.00 0.00 0.00 64 1023.7
20260509200704 53 357 2.0 3.0 0.00 0.00 0.00 63 1023.6
20260509200204 53 6 1.0 3.0 0.00 0.00 0.00 63 1023.6
20260509195703 53 12 3.0 6.0 0.00 0.00 0.00 63 1023.6
20260509195204 53 2 3.0 6.0 0.00 0.00 0.00 63 1023.4
20260509194704 53 3 2.0 5.0 0.00 0.00 0.00 62 1023.5
20260509194203 54 349 2.0 3.0 0.00 0.00 0.00 62 1023.5
20260509193703 54 5 2.0 5.0 0.00 0.00 0.00 61 1023.5
20260509193203 54 8 2.0 5.0 0.00 0.00 0.00 61 1023.5
20260509192703 54 2 3.0 5.0 0.00 0.00 0.00 61 1023.4
20260509191703 55 13 3.0 8.0 0.00 0.00 0.00 60 1023.4
20260509191204 55 40 2.0 6.0 0.00 0.00 0.00 60 1023.3
20260509190703 55 16 2.0 5.0 0.00 0.00 0.00 59 1023.4
20260509190204 56 39 2.0 7.0 0.00 0.00 0.00 59 1023.3
20260509185704 56 16 3.0 7.0 0.00 0.00 0.00 59 1023.2
20260509185205 56 60 5.0 8.0 0.00 0.00 0.00 58 1023.0
20260509184705 56 29 5.0 9.0 0.00 0.00 0.00 58 1023.1
20260509184204 56 49 6.0 9.0 0.00 0.00 0.00 58 1022.9
20260509183703 57 49 4.0 7.0 0.00 0.00 0.00 57 1023.0
20260509183204 57 29 4.0 6.0 0.00 0.00 0.00 56 1022.9
20260509182703 58 20 3.0 9.0 0.00 0.00 0.00 56 1022.8
20260509181703 58 45 6.0 13.0 0.00 0.00 0.00 55 1022.7
20260509181203 59 47 7.0 12.0 0.00 0.00 0.00 55 1022.6
20260509180704 59 42 7.0 16.0 0.00 0.00 0.00 55 1022.7
20260509180204 59 47 7.0 17.0 0.00 0.00 0.00 55 1022.8
20260509175704 60 10 5.0 16.0 0.00 0.00 0.00 54 1022.6
20260509175203 60 15 4.0 9.0 0.00 0.00 0.00 54 1022.5
20260509173704 61 7 6.0 15.0 0.00 0.00 0.00 52 1022.6
20260509172704 62 10 6.0 13.0 0.00 0.00 0.00 52 1022.5
20260509172204 62 24 5.0 9.0 0.00 0.00 0.00 51 1022.4
20260509171703 62 22 6.0 12.0 0.00 0.00 0.00 51 1022.4
20260509170703 63 12 6.0 10.0 0.00 0.00 0.00 51 1022.4
20260509170203 63 33 6.0 13.0 0.00 0.00 0.00 50 1022.5
20260509165703 64 2 5.0 12.0 0.00 0.00 0.00 49 1022.6
20260509165204 64 14 8.0 14.0 0.00 0.00 0.00 49 1022.4
20260509164204 65 30 6.0 17.0 0.00 0.00 0.00 48 1022.5
20260509163704 65 17 7.0 13.0 0.00 0.00 0.00 48 1022.4
20260509163204 65 19 7.0 13.0 0.00 0.00 0.00 48 1022.5
20260509162703 66 26 5.0 13.0 0.00 0.00 0.00 48 1022.3
20260509162204 66 22 8.0 14.0 0.00 0.00 0.00 48 1022.5
20260509161704 66 53 8.0 17.0 0.00 0.00 0.00 48 1022.2
20260509161204 66 42 7.0 17.0 0.00 0.00 0.00 48 1022.4
20260509160703 67 26 7.0 17.0 0.00 0.00 0.00 47 1022.7
20260509160204 67 44 6.0 14.0 0.00 0.00 0.00 48 1022.6
20260509155704 67 356 6.0 9.0 0.00 0.00 0.00 48 1022.5
20260509155204 67 6 9.0 16.0 0.00 0.00 0.00 48 1022.5
20260509154704 66 51 8.0 14.0 0.00 0.00 0.00 49 1022.5
20260509154204 66 60 5.0 9.0 0.00 0.00 0.00 49 1022.6
20260509153704 66 20 6.0 12.0 0.00 0.00 0.00 48 1022.5
20260509153204 67 38 7.0 18.0 0.00 0.00 0.00 48 1022.5
20260509152703 67 35 9.0 14.0 0.00 0.00 0.00 47 1022.6
20260509152204 67 21 9.0 16.0 0.00 0.00 0.00 47 1022.5
20260509150204 67 55 5.0 12.0 0.00 0.00 0.00 48 1022.6
20260509145703 67 22 8.0 15.0 0.00 0.00 0.00 46 1022.5
20260509145204 67 9 6.0 13.0 0.00 0.00 0.00 47 1022.5
20260509144704 68 10 6.0 13.0 0.00 0.00 0.00 46 1022.5
20260509144204 68 9 4.0 10.0 0.00 0.00 0.00 47 1022.6
20260509143703 68 34 5.0 12.0 0.00 0.00 0.00 46 1022.5
20260509143203 68 19 5.0 15.0 0.00 0.00 0.00 46 1022.5
20260509142704 69 9 7.0 13.0 0.00 0.00 0.00 45 1022.6
20260509142204 69 4 7.0 14.0 0.00 0.00 0.00 45 1022.4
20260509141703 69 350 5.0 8.0 0.00 0.00 0.00 46 1022.9
20260509141204 69 352 5.0 10.0 0.00 0.00 0.00 46 1022.8
20260509140204 69 35 10.0 15.0 0.00 0.00 0.00 46 1022.8
20260509135204 69 30 4.0 8.0 0.00 0.00 0.00 45 1022.8
20260509134703 69 14 6.0 12.0 0.00 0.00 0.00 45 1022.6
20260509134204 69 2 6.0 13.0 0.00 0.00 0.00 44 1022.7
20260509133705 69 18 5.0 7.0 0.00 0.00 0.00 45 1022.6
20260509133204 69 23 4.0 13.0 0.00 0.00 0.00 44 1022.8
20260509132704 70 48 5.0 13.0 0.00 0.00 0.00 45 1022.8
20260509132203 70 45 8.0 14.0 0.00 0.00 0.00 44 1022.8
20260509131704 70 351 6.0 14.0 0.00 0.00 0.00 45 1022.8
20260509131204 70 350 6.0 13.0 0.00 0.00 0.00 44 1022.7
20260509130704 70 351 7.0 13.0 0.00 0.00 0.00 45 1022.9
20260509130204 70 5 9.0 16.0 0.00 0.00 0.00 46 1022.9
20260509125704 69 331 6.0 12.0 0.00 0.00 0.00 46 1023.0
20260509125204 69 356 7.0 13.0 0.00 0.00 0.00 45 1023.0
20260509124704 69 355 5.0 14.0 0.00 0.00 0.00 46 1023.1
20260509124204 69 351 5.0 10.0 0.00 0.00 0.00 45 1023.1
20260509123704 69 6 5.0 16.0 0.00 0.00 0.00 46 1023.2
20260509123204 69 351 7.0 16.0 0.00 0.00 0.00 46 1023.1
20260509122703 70 339 5.0 9.0 0.00 0.00 0.00 46 1023.2
20260509122204 70 311 6.0 9.0 0.00 0.00 0.00 46 1023.1
20260509121704 69 332 4.0 12.0 0.00 0.00 0.00 47 1023.2
20260509121204 69 348 5.0 9.0 0.00 0.00 0.00 47 1023.3
20260509120704 69 10 6.0 12.0 0.00 0.00 0.00 45 1023.4
20260509120204 69 358 7.0 14.0 0.00 0.00 0.00 47 1023.4
20260509115704 69 326 6.0 14.0 0.00 0.00 0.00 48 1023.5
20260509115204 68 332 4.0 14.0 0.00 0.00 0.00 48 1023.5
20260509114704 69 350 6.0 12.0 0.00 0.00 0.00 46 1023.6
20260509114203 69 7 8.0 15.0 0.00 0.00 0.00 47 1023.6
20260509112704 69 2 6.0 12.0 0.00 0.00 0.00 46 1023.7
20260509112203 69 8 4.0 14.0 0.00 0.00 0.00 49 1023.7
20260509111704 68 5 7.0 14.0 0.00 0.00 0.00 49 1023.6
20260509111203 67 47 5.0 10.0 0.00 0.00 0.00 48 1023.8
20260509110204 68 2 9.0 15.0 0.00 0.00 0.00 46 1023.7
20260509105704 69 2 7.0 13.0 0.00 0.00 0.00 47 1023.9
20260509104704 68 2 4.0 9.0 0.00 0.00 0.00 49 1023.8
20260509104203 69 3 7.0 15.0 0.00 0.00 0.00 46 1024.1
20260509103705 69 16 7.0 13.0 0.00 0.00 0.00 49 1024.0
20260509103204 68 13 5.0 13.0 0.00 0.00 0.00 48 1023.9
20260509102704 68 55 9.0 15.0 0.00 0.00 0.00 49 1024.0
20260509102203 68 339 5.0 12.0 0.00 0.00 0.00 47 1023.9
20260509101704 68 2 7.0 15.0 0.00 0.00 0.00 49 1024.0
20260509101204 68 31 5.0 12.0 0.00 0.00 0.00 48 1024.1
20260509100704 68 28 8.0 15.0 0.00 0.00 0.00 49 1024.2
20260509100205 67 333 6.0 13.0 0.00 0.00 0.00 49 1024.1
20260509095703 67 42 9.0 15.0 0.00 0.00 0.00 49 1024.2
20260509095204 67 353 4.0 14.0 0.00 0.00 0.00 49 1024.3
20260509094703 67 3 8.0 15.0 0.00 0.00 0.00 50 1024.3
20260509094204 67 46 10.0 15.0 0.00 0.00 0.00 51 1024.2
20260509093704 67 340 5.0 9.0 0.00 0.00 0.00 51 1024.3
20260509092703 66 45 9.0 16.0 0.00 0.00 0.00 48 1024.4
20260509092204 66 353 8.0 16.0 0.00 0.00 0.00 47 1024.5
20260509091204 66 5 10.0 20.0 0.00 0.00 0.00 47 1024.4
20260509090704 66 16 7.0 16.0 0.00 0.00 0.00 47 1024.6
20260509085704 66 25 6.0 13.0 0.00 0.00 0.00 51 1024.4
20260509083704 66 27 5.0 8.0 0.00 0.00 0.00 54 1024.4
20260509083203 65 10 3.0 8.0 0.00 0.00 0.00 53 1024.4
20260509082203 65 282 5.0 12.0 0.00 0.00 0.00 53 1024.3
20260509081703 65 10 6.0 13.0 0.00 0.00 0.00 55 1024.3
20260509081204 65 10 5.0 8.0 0.00 0.00 0.00 56 1024.4
20260509080703 64 15 6.0 12.0 0.00 0.00 0.00 56 1024.5
20260509080204 64 1 5.0 13.0 0.00 0.00 0.00 57 1024.6
20260509075704 64 59 5.0 10.0 0.00 0.00 0.00 58 1024.5
20260509075204 63 350 4.0 13.0 0.00 0.00 0.00 57 1024.5
20260509074704 63 1 6.0 13.0 0.00 0.00 0.00 57 1024.4
20260509074204 63 46 5.0 9.0 0.00 0.00 0.00 60 1024.5
20260509073703 62 23 6.0 9.0 0.00 0.00 0.00 61 1024.5
20260509073204 62 52 6.0 10.0 0.00 0.00 0.00 62 1024.6
20260509072204 61 358 5.0 13.0 0.00 0.00 0.00 62 1024.7
20260509071704 60 4 5.0 14.0 0.00 0.00 0.00 63 1024.3
20260509071204 60 9 5.0 15.0 0.00 0.00 0.00 66 1024.4
20260509070704 60 357 3.0 7.0 0.00 0.00 0.00 67 1024.5
20260509070204 59 19 5.0 13.0 0.00 0.00 0.00 69 1024.6
20260509065704 59 61 7.0 10.0 0.00 0.00 0.00 69 1024.6
20260509065204 58 53 6.0 12.0 0.00 0.00 0.00 70 1024.5
20260509064705 58 14 5.0 13.0 0.00 0.00 0.00 71 1024.5
20260509064204 57 40 7.0 13.0 0.00 0.00 0.00 73 1024.5
20260509063704 57 8 6.0 13.0 0.00 0.00 0.00 72 1024.3
20260509063204 56 5 5.0 10.0 0.00 0.00 0.00 74 1024.3
20260509062704 56 21 6.0 12.0 0.00 0.00 0.00 75 1024.3
20260509062204 56 15 7.0 13.0 0.00 0.00 0.00 75 1024.1
20260509061705 55 37 6.0 12.0 0.00 0.00 0.00 77 1024.2
20260509061204 55 44 9.0 15.0 0.00 0.00 0.00 77 1024.4
20260509060704 55 54 6.0 13.0 0.00 0.00 0.00 78 1024.1
20260509055704 54 25 6.0 12.0 0.00 0.00 0.00 80 1023.9
20260509055204 53 52 8.0 13.0 0.00 0.00 0.00 81 1023.9
20260509054704 53 8 7.0 12.0 0.00 0.00 0.00 82 1024.0
20260509054204 52 36 7.0 13.0 0.00 0.00 0.00 82 1023.9
20260509053704 52 30 5.0 10.0 0.00 0.00 0.00 83 1023.8
20260509053204 51 21 5.0 10.0 0.00 0.00 0.00 83 1023.8
20260509052704 51 11 3.0 10.0 0.00 0.00 0.00 84 1023.9
20260509052204 50 13 3.0 7.0 0.00 0.00 0.00 84 1023.8
20260509051704 50 36 4.0 7.0 0.00 0.00 0.00 84 1023.8
20260509051204 50 34 3.0 7.0 0.00 0.00 0.00 84 1023.9
20260509050704 49 17 3.0 6.0 0.00 0.00 0.00 84 1023.8
20260509050204 49 353 3.0 6.0 0.00 0.00 0.00 84 1023.7
20260509045204 49 4 2.0 6.0 0.00 0.00 0.00 85 1023.7
20260509044203 49 356 3.0 5.0 0.00 0.00 0.00 85 1023.6
20260509043704 49 354 4.0 7.0 0.00 0.00 0.00 85 1023.6
20260509043204 48 4 3.0 6.0 0.00 0.00 0.00 85 1023.6
20260509042704 48 4 3.0 6.0 0.00 0.00 0.00 85 1023.5
20260509042203 48 0 3.0 6.0 0.00 0.00 0.00 85 1023.6
20260509041704 48 357 3.0 6.0 0.00 0.00 0.00 85 1023.5
20260509041203 48 4 2.0 3.0 0.00 0.00 0.00 84 1023.6
20260509040704 48 3 2.0 3.0 0.00 0.00 0.00 84 1023.4
20260509035204 48 7 2.0 3.0 0.00 0.00 0.00 84 1023.6
20260509034704 48 356 2.0 3.0 0.00 0.00 0.00 83 1023.6
20260509034204 48 358 1.0 3.0 0.00 0.00 0.00 83 1023.4
20260509033205 48 15 2.0 6.0 0.00 0.00 0.00 83 1023.6
20260509032704 49 15 3.0 5.0 0.00 0.00 0.00 83 1023.3
20260509031703 49 20 3.0 7.0 0.00 0.00 0.00 82 1023.5
20260509031204 49 33 3.0 7.0 0.00 0.00 0.00 82 1023.4